FW0527 Weather Reports


time (UTC)temp
C
wind
direction
speed
KPH
gust
KPH
rain 1hr
cm
rain 24hr
cm
rain mn
cm
humidity
%
barometer
mb
20260505081539 6 309 0.0 0.0 0.00 0.03 0.00 92 1013.7
20260505080024 6 309 0.0 1.6 0.00 0.03 0.00 92 1014.0
20260505074524 6 309 0.0 0.0 0.00 0.03 0.00 92 1014.0
20260505073027 6 310 0.0 9.7 0.00 0.03 0.00 91 1014.0
20260505071540 6 300 0.0 6.4 0.00 0.03 0.00 91 1014.1
20260505070019 6 315 0.0 4.8 0.00 0.03 0.00 91 1014.1
20260505064523 6 260 0.0 4.8 0.03 0.03 0.03 91 1014.1
20260505063018 6 258 0.0 8.0 0.03 0.03 0.03 91 1014.3
20260505061517 6 271 0.0 8.0 0.03 0.03 0.03 91 1014.3
20260505060017 6 297 0.0 11.3 0.03 0.03 0.03 91 1014.3
20260505054520 6 315 0.0 12.9 0.00 0.00 0.00 90 1014.5
20260505053023 6 306 1.6 9.7 0.00 0.00 0.00 90 1014.7
20260505051525 6 273 0.0 12.9 0.00 0.00 0.00 90 1014.9
20260505041515 7 270 0.0 8.0 0.00 0.00 0.00 88 1014.7
20260505040015 7 333 0.0 9.7 0.00 0.00 0.00 88 1014.7
20260505034511 7 316 1.6 17.7 0.00 0.00 0.00 87 1014.4
20260505033011 7 302 1.6 9.7 0.00 0.00 0.00 86 1014.3
20260505031508 7 262 0.0 16.1 0.00 0.00 0.00 85 1014.3
20260505030021 7 286 1.6 12.9 0.00 0.00 0.00 84 1014.1
20260505024508 8 296 0.0 17.7 0.00 0.00 0.00 83 1014.0
20260505023008 8 293 3.2 20.9 0.00 0.00 0.00 81 1013.9
20260505021508 8 325 6.4 17.7 0.00 0.00 0.00 81 1014.0
20260505020007 8 269 1.6 14.5 0.00 0.00 0.00 79 1014.0
20260505014507 9 252 0.0 4.8 0.00 0.00 0.00 76 1013.9
20260505013006 10 280 0.0 6.4 0.00 0.00 0.00 75 1014.1
20260505011509 10 328 0.0 6.4 0.00 0.00 0.00 72 1014.1
20260505010006 11 263 0.0 24.1 0.00 0.00 0.00 70 1014.2
20260505004506 11 298 0.0 17.7 0.00 0.00 0.00 68 1014.1
20260505003004 11 318 0.0 14.5 0.00 0.00 0.00 67 1014.2
20260505001503 11 278 0.0 20.9 0.00 0.00 0.00 67 1014.1
20260505000002 11 296 0.0 20.9 0.00 0.00 0.00 67 1014.3
20260504234502 11 341 0.0 17.7 0.00 0.00 0.00 66 1014.4
20260504233002 11 255 0.0 12.9 0.00 0.00 0.00 66 1014.3
20260504231501 11 267 0.0 19.3 0.00 0.00 0.00 65 1014.3
20260504224603 11 287 0.0 14.5 0.00 0.00 0.00 63 1014.3
20260504223100 12 304 0.0 24.1 0.00 0.00 0.00 63 1014.4
20260504221600 12 309 0.0 17.7 0.00 0.00 0.00 64 1014.4
20260504220121 12 299 0.0 9.7 0.00 0.00 0.00 63 1014.6
20260504214600 12 314 0.0 16.1 0.00 0.00 0.00 64 1014.7
20260504213102 12 309 0.0 6.4 0.00 0.00 0.00 61 1014.7
20260504211557 13 302 1.6 22.5 0.00 0.00 0.00 59 1014.7
20260504210056 13 304 0.0 22.5 0.00 0.00 0.00 59 1014.6
20260504204553 13 242 0.0 24.1 0.00 0.00 0.00 61 1014.6
20260504203051 13 333 0.0 20.9 0.00 0.00 0.00 62 1014.7
20260504201548 12 323 0.0 17.7 0.00 0.00 0.00 67 1014.8
20260504200050 11 308 0.0 17.7 0.00 0.00 0.00 66 1014.9
20260504194545 11 290 0.0 3.2 0.00 0.00 0.00 71 1014.9
20260504193037 11 324 0.0 16.1 0.00 0.00 0.00 70 1014.9
20260504191549 11 299 1.6 14.5 0.00 0.00 0.00 70 1014.7
20260504190031 10 306 0.0 4.8 0.00 0.00 0.00 74 1015.0
20260504184533 10 297 0.0 9.7 0.00 0.00 0.00 74 1015.0
20260504183039 10 292 0.0 9.7 0.00 0.00 0.00 75 1015.1
20260504181529 10 309 0.0 6.4 0.00 0.00 0.00 74 1015.1
20260504180029 10 293 0.0 14.5 0.00 0.00 0.00 72 1014.9
20260504174526 10 294 0.0 8.0 0.00 0.00 0.00 73 1014.8
20260504173027 10 246 0.0 14.5 0.00 0.00 0.00 73 1014.6
20260504171521 9 309 0.0 12.9 0.00 0.00 0.00 75 1014.4